Preview of NWS' New Version of Forecast
This preview is not operational and should not be used for support decisions.

Regional Weather Roundup (RWR)

Issued by National Weather Service (NWS)

                            
000
ASUS43 KTOP 212059
RWRKS 

WEATHER ROUNDUP FOR KANSAS
NATIONAL WEATHER SERVICE GOODLAND KS
400 PM CDT WED AUG 21 2019

NOTE:  "FAIR" INDICATES FEW OR NO CLOUDS BELOW 12,000 FEET WITH NO
SIGNIFICANT WEATHER AND/OR OBSTRUCTIONS TO VISIBILITY.

KSZ001>006-013>018-027>032-041>047-212200-
NORTHWEST KANSAS
  
CITY           SKY/WX    TMP DP  RH WIND       PRES   REMARKS
GOODLAND       PTSUNNY   84  65  52 E10G20    30.07F                  
HAYS           SUNNY     84  67  56 E7        29.89R                  
HILL CITY      SUNNY     86  69  56 N5        30.02F                  
RUSSELL        MOSUNNY   79  68  69 NE8       30.00R                  
$$

KSZ061>065-074>080-084>089-212200-
SOUTHWEST KANSAS
  
CITY           SKY/WX    TMP DP  RH WIND       PRES   REMARKS
DODGE CITY     SUNNY     94  63  35 SE26G38   29.96F HX  95           
GARDEN CITY    SUNNY     90  63  40 S15       29.96F                  
GREAT BEND     LGT RAIN  83  68  60 S13       29.94F                  
LIBERAL        MOSUNNY   94  57  28 SW10      29.95F THUNDER          
$$

KSZ066>073-081>083-090>101-212200-
SOUTHEAST KANSAS
  
CITY           SKY/WX    TMP DP  RH WIND       PRES   REMARKS
CHANUTE        SUNNY     91  75  59 S5        29.96F HX 101           
COFFEYVILLE    SUNNY     92  75  57 S3        29.94F HX 103           
HUTCHINSON     SUNNY     90  70  51 S15       29.94F HX  95           
MEDICINE LODGE   N/A     93  67  42 SE9G17    29.93F HX  96           
NEWTON         SUNNY     85  73  67 SE18      29.95F                  
PARSONS        SUNNY     92  78  63 VRB5      29.96F HX 107           
WICHITA INTL   PTSUNNY   92  70  48 SE16      29.93F HX  97           
WICHITA JABRA  SUNNY     88  70  55 SE12      29.95F                  
WICHITA MCCONL CLOUDY    91  66  44 E12       29.95F                  
WINFIELD       SUNNY     93  72  50 SE12G18   29.94F HX 101           
$$

KSZ007>012-019>026-033>040-048>060-102>105-212200-
NORTHEAST KANSAS
  
CITY           SKY/WX    TMP DP  RH WIND       PRES   REMARKS
CONCORDIA      MOSUNNY   81  70  69 E9        30.02R                  
EMPORIA        PTSUNNY   83  74  74 NE7       29.95F                  
LAWRENCE       MOSUNNY   80  69  69 NE3       30.00F                  
MANHATTAN      MOSUNNY   79  69  71 E8        30.00R                  
OLATHE IND     SUNNY     82  71  69 NE7       30.00S                  
OLATHE EXE     SUNNY     81  73  76 NE8       29.98F                  
SALINA         PTSUNNY   79  69  71 NE13      30.00R                  
TOPEKA BILLARD LGT RAIN  77  71  82 E8        29.98F                  
TOPEKA FORBES  LGT RAIN  77  71  82 E7        29.98F                  
$$